PST,Max TemperatureF,Mean TemperatureF,Min TemperatureF,Max Dew PointF,MeanDew PointF,Min DewpointF,Max Humidity, Mean Humidity, Min Humidity, Max Sea Level PressureIn, Mean Sea Level PressureIn, Min Sea Level PressureIn, Max VisibilityMiles, Mean VisibilityMiles, Min VisibilityMiles, Max Wind SpeedMPH, Mean Wind SpeedMPH, Max Gust SpeedMPH,PrecipitationIn, CloudCover, Events, WindDirDegrees
2013-1-1,51,41,30,37,35,30,100,76,52,30.42,30.36,30.30,10,8,2,7,1,9,0.00,4,,20
2013-1-2,34,32,29,34,32,28,100,96,92,30.31,30.23,30.17,7,1,0,6,1,7,0.00,8,Fog,242
2013-1-3,46,38,29,39,32,28,100,83,65,30.30,30.19,30.13,10,5,0,7,0,8,0.00,6,Fog,245
2013-1-4,53,43,32,39,35,32,100,80,59,30.34,30.28,30.18,10,5,0,6,0,6,0.00,2,Fog,230
2013-1-5,46,41,35,41,37,34,100,91,82,30.22,30.19,30.16,10,8,4,9,0,12,0.01,7,Rain,230
2013-1-6,52,45,38,41,39,37,100,80,59,30.27,30.21,30.18,10,7,2,7,1,9,T,7,,160
2013-1-7,55,50,44,48,45,40,93,85,77,30.27,30.23,30.17,10,10,4,7,2,9,0.03,8,Rain,103
2013-1-8,61,55,48,45,44,42,93,72,51,30.27,30.18,30.00,10,10,10,12,2,16,0.00,5,,165
2013-1-9,52,43,34,43,37,33,92,79,66,30.05,30.00,29.87,10,9,2,13,3,17,0.28,7,Rain-Snow,220
2013-1-10,40,37,33,37,35,32,100,93,85,30.20,30.13,30.04,10,7,1,9,2,14,0.34,8,Rain-Snow,148
2013-1-11,44,37,30,36,33,28,100,84,67,30.32,30.25,30.17,10,9,2,7,0,21,0.07,6,Rain,270
2013-1-12,39,33,27,32,29,26,100,85,70,30.39,30.33,30.29,10,9,3,5,1,,0.00,5,,195
2013-1-13,37,32,26,28,25,23,100,82,64,30.49,30.43,30.39,10,10,6,10,1,12,0.00,6,,349
2013-1-14,40,33,26,29,27,25,92,78,64,30.58,30.54,30.49,10,10,4,7,0,8,0.00,4,,15
2013-1-15,38,31,24,31,27,23,100,88,76,30.66,30.62,30.58,10,4,0,5,0,6,0.00,6,Fog,80
2013-1-16,34,32,29,32,30,28,100,96,92,30.66,30.58,30.48,7,2,0,5,0,6,0.00,8,Fog,41
2013-1-17,37,34,31,34,32,30,100,96,92,30.49,30.39,30.31,8,2,0,7,1,7,0.00,8,Fog,7
2013-1-18,42,37,31,37,32,30,100,91,82,30.33,30.29,30.25,10,2,0,6,1,8,0.00,4,Fog,125
2013-1-19,47,38,29,38,32,29,100,83,65,30.35,30.30,30.26,10,3,0,5,1,6,0.00,2,Fog,220
2013-1-20,49,39,28,38,31,28,100,83,66,30.35,30.30,30.21,10,4,0,5,0,6,0.00,3,Fog,225
2013-1-21,52,39,26,37,31,26,100,77,54,30.27,30.21,30.14,10,4,0,6,0,8,0.00,2,Fog,208
2013-1-22,46,37,27,37,31,27,100,83,65,30.15,30.06,29.94,10,4,0,5,0,6,0.00,3,Fog,220
2013-1-23,43,41,38,43,41,36,100,93,85,30.19,30.03,29.88,9,4,2,9,0,12,0.54,8,Rain,360
2013-1-24,53,47,41,48,44,41,100,92,83,30.21,30.17,30.12,10,4,0,6,1,20,0.08,8,Fog-Rain,330
2013-1-25,55,49,43,52,48,43,100,95,89,30.16,30.07,30.00,10,4,0,5,0,7,0.60,8,Fog-Rain,303
2013-1-26,47,43,38,43,39,36,100,88,76,30.16,30.06,30.03,10,7,0,14,2,20,0.15,7,Fog-Rain,158
2013-1-27,46,42,37,39,37,36,100,88,76,30.25,30.18,30.14,10,9,2,8,2,13,0.03,8,Rain,174
2013-1-28,45,43,40,43,40,37,100,93,86,30.34,30.27,30.18,10,9,5,8,2,9,0.23,8,Rain,131
2013-1-29,51,47,43,43,42,39,100,86,71,30.55,30.48,30.36,10,9,2,7,2,9,0.05,8,Rain,118
2013-1-30,53,45,37,45,41,37,100,83,66,30.59,30.53,30.48,10,10,7,7,1,22,0.00,7,,40
2013-1-31,49,45,40,44,40,37,93,82,71,30.47,30.42,30.36,10,10,10,10,2,12,0.00,8,,60